Weather History for Moses Lake, WA

Change the Weather History Date:

Saturday, January 4, 2014

  Actual Average Record
Temperature  
Mean Temperature 30 °F 28 °F  
Max Temperature 43 °F 34 °F 46 °F (2000)
Min Temperature 16 °F 22 °F -9 °F (2004)
Degree Days  
Heating Degree Days 35 37  
Month to date heating degree days 130 148  
Since 1 July heating degree days 2814 2735  
Cooling Degree Days 0 0  
Month to date cooling degree days 0 0  
Year to date cooling degree days 0 0  
Moisture  
Dew Point 18 °F    
Average Humidity 66    
Maximum Humidity 92    
Minimum Humidity 39    
Precipitation  
Precipitation 0.00 in 0.06 in 0.34 in (2009)
Month to date precipitation 0.00 0.21  
Year to date precipitation 0.00 0.21  
Sea Level Pressure  
Sea Level Pressure 30.41 in    
Wind  
Wind Speed 5 mph (SW)    
Max Wind Speed 12 mph    
Max Gust Speed 14 mph    
Visibility 10 miles    
Events      
T = Trace of Precipitation, MM = Missing Value Source: NWS Daily Summary

Daily Weather History Graph

Daily Weather History Graph

Search for Another Location

Airport:

Trip Planner

Search our weather history database for the weather conditions in past years. The results will help you decide how hot, cold, wet, or windy it might be!

Date:

Astronomy

Jan. 04, 2014 Rise Set
Actual Time 7:43 AM PST 4:21 PM PST
Civil Twilight 7:08 AM PST 4:56 PM PST
Nautical Twilight 6:29 AM PST 5:35 PM PST
Astronomical Twilight 5:52 AM PST 6:12 PM PST
Moon 9:35 AM PST (1/4) 9:05 PM PST (1/4)
Length of Visible Light 9h 48m
Length of Day
8h 37m
Waxing Crescent, 16% of the Moon is Illuminated
Jan 4
Waxing Crescent
Jan 7
First Quarter
Jan 15
Full
Jan 23
Last Quarter
Jan 30
New

Hourly Weather History & Observations

Time (PST) Temp. Windchill Dew Point Humidity Pressure Visibility Wind Dir Wind Speed Gust Speed Precip Events Conditions
12:52 AM 28.9 °F 23.9 °F 19.0 °F 67% 30.29 in 10.0 mi West 4.6 mph - N/A   Clear
1:52 AM 27.0 °F 20.5 °F 17.1 °F 66% 30.31 in 10.0 mi North 5.8 mph - N/A   Clear
2:52 AM 25.0 °F - 16.0 °F 69% 30.34 in 10.0 mi Calm Calm - N/A   Clear
3:52 AM 24.1 °F 18.2 °F 16.0 °F 71% 30.35 in 10.0 mi WSW 4.6 mph - N/A   Clear
4:52 AM 17.1 °F 10.0 °F 12.9 °F 84% 30.36 in 10.0 mi NNW 4.6 mph - N/A   Clear
5:52 AM 18.0 °F - 14.0 °F 84% 30.39 in 10.0 mi Calm Calm - N/A   Clear
6:52 AM 17.1 °F - 12.9 °F 84% 30.40 in 10.0 mi Calm Calm - N/A   Clear
7:52 AM 17.1 °F 8.7 °F 14.0 °F 88% 30.42 in 10.0 mi WSW 5.8 mph - N/A   Clear
8:52 AM 21.0 °F 14.6 °F 16.0 °F 81% 30.44 in 10.0 mi South 4.6 mph - N/A   Clear
9:52 AM 26.1 °F - 19.0 °F 75% 30.45 in 10.0 mi Calm Calm - N/A   Clear
10:52 AM 30.9 °F - 21.0 °F 67% 30.45 in 10.0 mi Calm Calm - N/A   Clear
11:52 AM 39.0 °F 36.8 °F 24.1 °F 55% 30.43 in 10.0 mi WSW 3.5 mph - N/A   Clear
12:52 PM 42.1 °F 35.7 °F 19.9 °F 41% 30.41 in 10.0 mi WSW 11.5 mph - N/A   Clear
1:52 PM 43.0 °F 38.2 °F 21.0 °F 42% 30.41 in 10.0 mi SSW 8.1 mph - N/A   Clear
2:52 PM 43.0 °F 39.5 °F 19.0 °F 38% 30.41 in 10.0 mi SW 5.8 mph - N/A   Clear
3:52 PM 39.0 °F 34.0 °F 21.0 °F 49% 30.41 in 10.0 mi South 6.9 mph - N/A   Clear
4:52 PM 30.9 °F 25.2 °F 19.0 °F 61% 30.43 in 10.0 mi SE 5.8 mph - N/A   Clear
5:52 PM 30.0 °F 24.1 °F 21.0 °F 69% 30.42 in 10.0 mi South 5.8 mph - N/A   Clear
6:52 PM 26.1 °F 19.4 °F 19.9 °F 78% 30.43 in 10.0 mi SE 5.8 mph - N/A   Clear
7:52 PM 25.0 °F 20.7 °F 21.0 °F 85% 30.44 in 10.0 mi SE 3.5 mph - N/A   Clear
8:52 PM 19.0 °F 12.3 °F 16.0 °F 88% 30.44 in 10.0 mi North 4.6 mph - N/A   Clear
9:52 PM 16.0 °F 7.4 °F 14.0 °F 92% 30.45 in 10.0 mi NNE 5.8 mph - N/A   Clear
10:52 PM 17.1 °F 7.6 °F 14.0 °F 88% 30.47 in 10.0 mi North 6.9 mph - N/A   Clear
11:52 PM 17.1 °F 6.6 °F 14.0 °F 88% 30.48 in 10.0 mi North 8.1 mph - N/A   Clear